Time,TemperatureF,DewpointF,PressureIn,WindDirection,WindDirectionDegrees,WindSpeedMPH,WindSpeedGustMPH,Humidity,HourlyPrecipIn,Conditions,Clouds,dailyrainin,SolarRadiationWatts/m^2,SoftwareType,DateUTC
2013-09-07 00:02:00,65.6,64.0,29.85,ENE,78,0.0,-999.0,95,-99.99,,,0.00,0,weatherlink.com 1.10,2013-09-07 04:02:00,
2013-09-07 00:17:00,65.7,64.0,29.85,South,188,0.0,-999.0,95,-99.99,,,0.00,0,weatherlink.com 1.10,2013-09-07 04:17:00,
2013-09-07 00:32:00,65.8,64.0,29.84,South,188,0.0,-999.0,95,-99.99,,,0.00,0,weatherlink.com 1.10,2013-09-07 04:32:00,
2013-09-07 00:48:00,65.9,64.0,29.84,South,188,0.0,-999.0,94,-99.99,,,0.00,0,weatherlink.com 1.10,2013-09-07 04:48:00,
2013-09-07 01:03:00,65.8,64.0,29.84,South,188,0.0,-999.0,95,-99.99,,,0.00,0,weatherlink.com 1.10,2013-09-07 05:03:00,
2013-09-07 01:18:00,65.8,64.0,29.84,South,188,0.0,-999.0,95,-99.99,,,0.00,0,weatherlink.com 1.10,2013-09-07 05:18:00,
2013-09-07 01:33:00,65.9,65.0,29.83,South,188,0.0,-999.0,95,-99.99,,,0.00,0,weatherlink.com 1.10,2013-09-07 05:33:00,
2013-09-07 01:48:00,65.9,65.0,29.83,South,188,0.0,-999.0,95,-99.99,,,0.00,0,weatherlink.com 1.10,2013-09-07 05:48:00,
2013-09-07 02:03:00,66.0,65.0,29.83,South,188,0.0,-999.0,95,-99.99,,,0.00,0,weatherlink.com 1.10,2013-09-07 06:03:00,
2013-09-07 02:18:00,66.1,65.0,29.84,South,188,0.0,-999.0,95,-99.99,,,0.00,0,weatherlink.com 1.10,2013-09-07 06:18:00,
2013-09-07 02:33:00,66.0,65.0,29.84,WNW,301,0.0,-999.0,95,-99.99,,,0.00,0,weatherlink.com 1.10,2013-09-07 06:33:00,
2013-09-07 02:48:00,65.9,65.0,29.83,WNW,301,0.0,-999.0,95,-99.99,,,0.00,0,weatherlink.com 1.10,2013-09-07 06:48:00,
2013-09-07 03:03:00,65.9,65.0,29.83,WNW,301,0.0,-999.0,96,-99.99,,,0.00,0,weatherlink.com 1.10,2013-09-07 07:03:00,
2013-09-07 03:18:00,65.9,65.0,29.83,WNW,301,0.0,-999.0,96,-99.99,,,0.00,0,weatherlink.com 1.10,2013-09-07 07:18:00,
2013-09-07 03:33:00,65.7,65.0,29.82,WNW,301,0.0,-999.0,96,-99.99,,,0.00,0,weatherlink.com 1.10,2013-09-07 07:33:00,
2013-09-07 03:49:00,65.5,64.0,29.82,WNW,301,0.0,-999.0,96,-99.99,,,0.00,0,weatherlink.com 1.10,2013-09-07 07:49:00,
2013-09-07 04:04:00,65.3,64.0,29.82,WNW,301,0.0,-999.0,96,-99.99,,,0.00,0,weatherlink.com 1.10,2013-09-07 08:04:00,
2013-09-07 04:19:00,65.2,64.0,29.81,WNW,301,0.0,-999.0,96,-99.99,,,0.00,0,weatherlink.com 1.10,2013-09-07 08:19:00,
2013-09-07 04:34:00,65.1,64.0,29.81,WNW,301,0.0,-999.0,96,-99.99,,,0.00,0,weatherlink.com 1.10,2013-09-07 08:34:00,
2013-09-07 04:49:00,64.9,64.0,29.81,WNW,301,0.0,-999.0,96,-99.99,,,0.00,0,weatherlink.com 1.10,2013-09-07 08:49:00,
2013-09-07 05:04:00,64.9,64.0,29.81,WNW,301,0.0,-999.0,96,-99.99,,,0.00,0,weatherlink.com 1.10,2013-09-07 09:04:00,
2013-09-07 05:19:00,64.7,64.0,29.81,WNW,301,0.0,-999.0,96,-99.99,,,0.00,0,weatherlink.com 1.10,2013-09-07 09:19:00,
2013-09-07 05:34:00,64.6,64.0,29.80,WNW,301,0.0,-999.0,96,-99.99,,,0.00,0,weatherlink.com 1.10,2013-09-07 09:34:00,
2013-09-07 05:49:00,64.5,64.0,29.81,WNW,301,0.0,-999.0,97,-99.99,,,0.00,0,weatherlink.com 1.10,2013-09-07 09:49:00,
2013-09-07 06:04:00,64.5,64.0,29.81,WNW,301,0.0,-999.0,97,-99.99,,,0.00,0,weatherlink.com 1.10,2013-09-07 10:04:00,
2013-09-07 06:19:00,64.6,64.0,29.81,WNW,301,0.0,-999.0,97,-99.99,,,0.00,0,weatherlink.com 1.10,2013-09-07 10:19:00,
2013-09-07 06:34:00,64.6,64.0,29.81,WNW,301,0.0,-999.0,97,-99.99,,,0.00,0,weatherlink.com 1.10,2013-09-07 10:34:00,
2013-09-07 06:50:00,64.6,64.0,29.82,WNW,301,0.0,-999.0,97,-99.99,,,0.00,0,weatherlink.com 1.10,2013-09-07 10:50:00,
2013-09-07 07:05:00,64.6,64.0,29.82,WNW,301,0.0,-999.0,97,-99.99,,,0.00,0,weatherlink.com 1.10,2013-09-07 11:05:00,
2013-09-07 07:20:00,64.5,64.0,29.82,WNW,301,0.0,-999.0,97,-99.99,,,0.00,0,weatherlink.com 1.10,2013-09-07 11:20:00,
2013-09-07 07:35:00,64.4,64.0,29.82,WNW,301,0.0,-999.0,97,-99.99,,,0.00,9,weatherlink.com 1.10,2013-09-07 11:35:00,
2013-09-07 07:50:00,64.2,63.0,29.82,WNW,301,0.0,-999.0,97,-99.99,,,0.00,21,weatherlink.com 1.10,2013-09-07 11:50:00,
2013-09-07 08:05:00,64.1,63.0,29.83,WNW,301,0.0,-999.0,97,-99.99,,,0.00,39,weatherlink.com 1.10,2013-09-07 12:05:00,
2013-09-07 08:20:00,64.2,63.0,29.83,WNW,301,0.0,-999.0,97,-99.99,,,0.00,53,weatherlink.com 1.10,2013-09-07 12:20:00,
2013-09-07 08:35:00,64.7,64.0,29.82,WNW,301,0.0,-999.0,98,-99.99,,,0.00,148,weatherlink.com 1.10,2013-09-07 12:35:00,
2013-09-07 08:50:00,66.5,66.0,29.82,WNW,301,0.0,-999.0,98,-99.99,,,0.00,193,weatherlink.com 1.10,2013-09-07 12:50:00,
2013-09-07 09:06:00,67.7,67.0,29.82,WNW,301,0.0,-999.0,98,-99.99,,,0.00,241,weatherlink.com 1.10,2013-09-07 13:06:00,
2013-09-07 09:21:00,69.4,69.0,29.82,WNW,301,0.0,-999.0,97,-99.99,,,0.00,287,weatherlink.com 1.10,2013-09-07 13:21:00,
2013-09-07 09:36:00,71.9,70.0,29.82,WNW,301,0.0,-999.0,92,-99.99,,,0.00,336,weatherlink.com 1.10,2013-09-07 13:36:00,
2013-09-07 09:51:00,73.7,70.0,29.83,SSW,207,0.0,-999.0,87,-99.99,,,0.00,380,weatherlink.com 1.10,2013-09-07 13:51:00,
2013-09-07 10:06:00,75.3,70.0,29.83,South,177,2.0,-999.0,82,-99.99,,,0.01,417,weatherlink.com 1.10,2013-09-07 14:06:00,
2013-09-07 10:21:00,75.8,69.0,29.84,South,183,0.0,-999.0,80,-99.99,,,0.01,469,weatherlink.com 1.10,2013-09-07 14:21:00,
2013-09-07 10:36:00,75.5,69.0,29.84,NNE,28,0.0,-999.0,79,-99.99,,,0.01,142,weatherlink.com 1.10,2013-09-07 14:36:00,
2013-09-07 10:51:00,76.2,69.0,29.85,WNW,290,0.0,-999.0,79,-99.99,,,0.01,526,weatherlink.com 1.10,2013-09-07 14:51:00,
2013-09-07 11:07:00,76.1,69.0,29.85,East,88,0.0,-999.0,79,-99.99,,,0.01,503,weatherlink.com 1.10,2013-09-07 15:07:00,
2013-09-07 11:22:00,76.6,69.0,29.86,SW,236,0.0,-999.0,76,-99.99,,,0.01,592,weatherlink.com 1.10,2013-09-07 15:22:00,
2013-09-07 11:37:00,77.0,70.0,29.86,NNW,332,0.0,-999.0,78,-99.99,,,0.01,744,weatherlink.com 1.10,2013-09-07 15:37:00,
2013-09-07 11:52:00,76.7,69.0,29.86,NE,40,0.0,-999.0,76,-99.99,,,0.01,318,weatherlink.com 1.10,2013-09-07 15:52:00,
2013-09-07 12:07:00,73.8,67.0,29.88,ENE,70,1.0,-999.0,78,-99.99,,,0.01,132,weatherlink.com 1.10,2013-09-07 16:07:00,
2013-09-07 12:22:00,69.9,65.0,29.89,NNE,14,3.0,-999.0,84,-99.99,,,0.01,105,weatherlink.com 1.10,2013-09-07 16:22:00,
2013-09-07 12:37:00,68.5,64.0,29.89,SW,233,2.0,-999.0,86,-99.99,,,0.01,232,weatherlink.com 1.10,2013-09-07 16:37:00,
2013-09-07 12:52:00,67.5,64.0,29.89,NW,311,0.0,-999.0,87,-99.99,,,0.01,116,weatherlink.com 1.10,2013-09-07 16:52:00,
2013-09-07 13:07:00,66.9,63.0,29.90,WSW,250,0.0,-999.0,88,-99.99,,,0.01,118,weatherlink.com 1.10,2013-09-07 17:07:00,
2013-09-07 13:22:00,66.3,63.0,29.90,West,261,0.0,-999.0,88,-99.99,,,0.01,153,weatherlink.com 1.10,2013-09-07 17:22:00,
2013-09-07 13:37:00,65.7,62.0,29.91,West,260,0.0,-999.0,88,-99.99,,,0.01,109,weatherlink.com 1.10,2013-09-07 17:37:00,
2013-09-07 13:53:00,64.3,61.0,29.91,NE,36,0.0,-999.0,90,-99.99,,,0.01,116,weatherlink.com 1.10,2013-09-07 17:53:00,
2013-09-07 14:08:00,64.0,61.0,29.91,NNW,329,0.0,-999.0,90,-99.99,,,0.01,148,weatherlink.com 1.10,2013-09-07 18:08:00,
2013-09-07 14:23:00,63.2,61.0,29.91,West,264,0.0,-999.0,91,-99.99,,,0.01,167,weatherlink.com 1.10,2013-09-07 18:23:00,
2013-09-07 14:38:00,62.8,61.0,29.92,East,79,1.0,-999.0,92,-99.99,,,0.01,90,weatherlink.com 1.10,2013-09-07 18:38:00,
2013-09-07 14:53:00,62.4,60.0,29.92,SW,225,1.0,-999.0,93,-99.99,,,0.01,118,weatherlink.com 1.10,2013-09-07 18:53:00,
2013-09-07 15:08:00,62.1,60.0,29.92,West,265,2.0,-999.0,94,-99.99,,,0.01,88,weatherlink.com 1.10,2013-09-07 19:08:00,
2013-09-07 15:23:00,61.8,60.0,29.92,West,276,3.0,-999.0,95,-99.99,,,0.01,72,weatherlink.com 1.10,2013-09-07 19:23:00,
2013-09-07 15:38:00,61.5,60.0,29.93,ENE,60,0.0,-999.0,96,-99.99,,,0.01,77,weatherlink.com 1.10,2013-09-07 19:38:00,
2013-09-07 15:53:00,61.3,60.0,29.93,West,271,0.0,-999.0,96,-99.99,,,0.01,69,weatherlink.com 1.10,2013-09-07 19:53:00,
2013-09-07 16:08:00,60.5,59.0,29.94,SW,225,5.0,-999.0,96,-99.99,,,0.01,67,weatherlink.com 1.10,2013-09-07 20:08:00,
2013-09-07 16:24:00,60.2,59.0,29.95,South,177,0.0,-999.0,96,-99.99,,,0.01,65,weatherlink.com 1.10,2013-09-07 20:24:00,
2013-09-07 16:39:00,60.0,59.0,29.95,WSW,248,2.0,-999.0,96,-99.99,,,0.01,69,weatherlink.com 1.10,2013-09-07 20:39:00,
2013-09-07 16:54:00,59.9,59.0,29.95,WSW,250,0.0,-999.0,96,-99.99,,,0.02,56,weatherlink.com 1.10,2013-09-07 20:54:00,
2013-09-07 17:09:00,59.9,59.0,29.95,ENE,67,0.0,-999.0,96,-99.99,,,0.02,42,weatherlink.com 1.10,2013-09-07 21:09:00,
2013-09-07 17:24:00,59.8,59.0,29.96,South,175,0.0,-999.0,96,-99.99,,,0.02,39,weatherlink.com 1.10,2013-09-07 21:24:00,
2013-09-07 17:39:00,59.7,59.0,29.97,SW,227,1.0,-999.0,96,-99.99,,,0.02,30,weatherlink.com 1.10,2013-09-07 21:39:00,
2013-09-07 17:54:00,59.6,59.0,29.98,NW,309,0.0,-999.0,97,-99.99,,,0.02,30,weatherlink.com 1.10,2013-09-07 21:54:00,
2013-09-07 18:09:00,59.5,59.0,29.98,WSW,254,0.0,-999.0,97,-99.99,,,0.02,33,weatherlink.com 1.10,2013-09-07 22:09:00,
2013-09-07 18:24:00,59.4,59.0,29.99,SW,229,1.0,-999.0,97,-99.99,,,0.02,19,weatherlink.com 1.10,2013-09-07 22:24:00,
2013-09-07 18:39:00,59.3,59.0,29.99,South,173,0.0,-999.0,97,-99.99,,,0.02,30,weatherlink.com 1.10,2013-09-07 22:39:00,
2013-09-07 18:55:00,59.3,59.0,30.00,SSW,202,0.0,-999.0,97,-99.99,,,0.02,16,weatherlink.com 1.10,2013-09-07 22:55:00,
2013-09-07 19:10:00,59.2,58.0,30.00,SW,235,0.0,-999.0,97,-99.99,,,0.02,14,weatherlink.com 1.10,2013-09-07 23:10:00,
2013-09-07 19:25:00,59.2,58.0,30.01,SW,235,0.0,-999.0,97,-99.99,,,0.02,12,weatherlink.com 1.10,2013-09-07 23:25:00,
2013-09-07 19:40:00,59.1,58.0,30.02,SW,235,0.0,-999.0,96,-99.99,,,0.02,9,weatherlink.com 1.10,2013-09-07 23:40:00,
2013-09-07 19:55:00,58.9,58.0,30.02,WSW,250,0.0,-999.0,96,-99.99,,,0.02,0,weatherlink.com 1.10,2013-09-07 23:55:00,
2013-09-07 20:10:00,59.0,58.0,30.02,WSW,250,0.0,-999.0,96,-99.99,,,0.02,0,weatherlink.com 1.10,2013-09-08 00:10:00,
2013-09-07 20:25:00,58.9,58.0,30.03,WSW,250,0.0,-999.0,96,-99.99,,,0.02,0,weatherlink.com 1.10,2013-09-08 00:25:00,
2013-09-07 20:40:00,58.8,58.0,30.03,NE,50,0.0,-999.0,96,-99.99,,,0.02,0,weatherlink.com 1.10,2013-09-08 00:40:00,
2013-09-07 20:55:00,58.7,58.0,30.04,NE,47,0.0,-999.0,96,-99.99,,,0.02,0,weatherlink.com 1.10,2013-09-08 00:55:00,
2013-09-07 21:10:00,58.6,58.0,30.04,NE,47,0.0,-999.0,96,-99.99,,,0.02,0,weatherlink.com 1.10,2013-09-08 01:10:00,
2013-09-07 21:25:00,58.4,57.0,30.05,NE,47,0.0,-999.0,96,-99.99,,,0.02,0,weatherlink.com 1.10,2013-09-08 01:25:00,
2013-09-07 21:41:00,58.0,57.0,30.05,NE,47,0.0,-999.0,95,-99.99,,,0.02,0,weatherlink.com 1.10,2013-09-08 01:41:00,
2013-09-07 21:56:00,57.4,56.0,30.05,NE,47,0.0,-999.0,94,-99.99,,,0.02,0,weatherlink.com 1.10,2013-09-08 01:56:00,
2013-09-07 22:11:00,56.9,55.0,30.05,NE,47,0.0,-999.0,94,-99.99,,,0.02,0,weatherlink.com 1.10,2013-09-08 02:11:00,
2013-09-07 22:26:00,56.4,55.0,30.05,NE,47,0.0,-999.0,94,-99.99,,,0.02,0,weatherlink.com 1.10,2013-09-08 02:26:00,
2013-09-07 22:41:00,55.8,54.0,30.05,NE,47,0.0,-999.0,94,-99.99,,,0.02,0,weatherlink.com 1.10,2013-09-08 02:41:00,
2013-09-07 22:56:00,55.1,54.0,30.06,NE,47,0.0,-999.0,94,-99.99,,,0.02,0,weatherlink.com 1.10,2013-09-08 02:56:00,
2013-09-07 23:11:00,54.6,53.0,30.07,NE,47,0.0,-999.0,94,-99.99,,,0.02,0,weatherlink.com 1.10,2013-09-08 03:11:00,
2013-09-07 23:26:00,54.0,52.0,30.07,NE,47,0.0,-999.0,94,-99.99,,,0.02,0,weatherlink.com 1.10,2013-09-08 03:26:00,
2013-09-07 23:41:00,53.4,52.0,30.07,NE,47,0.0,-999.0,94,-99.99,,,0.02,0,weatherlink.com 1.10,2013-09-08 03:41:00,
2013-09-07 23:57:00,52.9,52.0,30.07,NE,47,0.0,-999.0,95,-99.99,,,0.02,0,weatherlink.com 1.10,2013-09-08 03:57:00,